Wind_Speed
14 15 15 15 16 16 16 17 17 16 17 18 19 19 19 20 20 20 20 20 21 20 21 21 22 22 21 21 22 22 22 23 23 24 23 24 23 24
15 15 16 17 17 17 18 18 18 18 18 19 19 19 19 19 20 20 20 20 21 22 22 23 23 23 23 24 24 25 25 25 25 25 25 26 26 26
17 17 18 18 18 18 19 19 19 19 19 19 20 20 20 20 20 21 21 21 22 22 22 23 23 24 25 25 25 26 26 27 28 28 28 29 29 29
18 19 19 19 19 19 20 20 20 20 20 21 21 21 21 22 22 22 22 23 22 23 23 24 25 25 26 27 27 28 28 29 29 29 30 31 31 30
19 19 19 20 20 20 20 21 21 22 22 21 21 22 23 23 23 23 24 24 24 23 24 26 27 28 28 28 29 30 31 31 31 31 32 32 32 32
19 20 20 20 21 21 22 22 22 23 23 23 23 24 25 25 25 25 25 26 26 26 26 26 27 28 30 30 30 31 33 33 34 34 34 34 34 34
20 21 22 22 22 22 23 23 24 24 25 25 25 26 26 26 26 27 28 28 28 29 28 29 29 30 31 32 33 33 34 34 35 35 35 35 36 37
22 22 23 23 24 24 25 25 25 25 26 26 27 27 28 29 29 29 30 30 30 30 30 31 32 32 33 33 34 34 35 35 35 36 37 38 38 39
23 24 24 25 25 25 26 26 26 26 26 27 28 29 30 30 30 31 31 32 32 32 33 33 34 34 35 35 35 35 36 36 37 37 38 39 40 41
24 25 25 25 25 25 26 27 27 28 28 29 30 31 32 31 32 32 32 33 33 34 34 34 35 35 36 36 36 36 36 37 38 39 39 40 41 42
25 25 25 26 26 27 28 29 30 30 30 31 32 32 33 32 32 32 33 33 34 34 35 35 36 37 37 37 37 37 38 39 40 40 40 40 40 41
24 25 26 27 28 29 30 30 31 31 32 32 32 33 33 34 35 35 35 35 35 35 36 36 36 37 37 38 39 39 40 41 41 42 41 41 41 42
25 26 27 28 29 30 30 31 31 32 32 32 33 34 35 36 36 36 37 37 37 37 38 38 38 39 39 40 40 41 41 41 41 41 41 42 42 43
27 27 28 29 30 31 32 32 32 32 33 33 34 35 35 37 37 38 38 38 38 38 39 39 40 40 41 40 40 41 42 41 41 41 42 42 42 42
28 29 30 30 31 32 33 34 34 34 34 35 35 35 36 37 38 38 39 39 39 40 40 40 40 41 42 42 41 41 41 41 40 40 41 41 41 42
30 31 32 32 33 34 34 34 34 34 35 35 35 36 37 37 38 39 40 39 40 41 41 41 41 42 42 42 42 42 41 41 41 40 40 40 41 41
32 33 33 34 35 34 34 35 35 35 36 36 37 38 37 38 38 39 39 40 40 40 41 42 42 42 42 42 42 42 42 41 41 41 41 41 41 41
34 35 35 35 35 34 35 35 36 37 37 38 38 38 38 38 38 39 39 40 40 40 41 41 41 42 42 42 42 41 41 40 41 41 41 41 41 41
34 34 35 35 35 35 35 36 36 37 37 37 38 38 38 38 38 38 39 39 39 39 40 40 40 39 39 39 40 40 39 39 39 40 40 41 40 40
33 34 34 34 34 35 36 37 37 37 38 38 38 39 39 40 40 39 39 39 39 39 39 38 38 38 38 38 38 39 39 39 39 39 39 39 39 38
33 33 34 34 35 35 36 37 37 38 38 38 38 39 39 40 40 39 39 38 38 38 37 37 37 37 37 37 37 37 37 38 38 37 37 36 36 36
33 33 34 35 35 35 36 37 38 38 38 39 39 39 39 39 38 38 37 37 36 36 36 36 36 36 36 36 36 35 35 35 35 35 35 35 34 34
33 34 35 35 36 36 37 38 38 38 38 39 39 40 40 39 38 37 37 37 36 36 36 35 35 35 35 35 35 34 34 33 33 32 32 32 32 32
Wind_Direction
298 298 295 295 296 294 290 288 290 290 290 290 289 287 287 286 284 284 283 283 282 281 282 283 281 280 281 280 280 278 275 275 275 276 276 275 274 273
297 299 298 296 296 295 295 292 292 293 295 293 294 291 289 288 289 288 286 286 285 284 283 282 281 282 280 281 280 279 278 276 276 275 275 275 275 274
297 296 296 298 296 294 293 292 291 292 293 294 292 292 290 287 288 289 289 287 287 285 285 285 284 283 282 281 281 281 279 278 277 275 274 273 273 272
298 297 297 298 297 294 293 291 290 290 291 292 291 290 291 290 290 290 289 287 289 288 286 286 285 284 283 281 280 280 279 279 279 278 276 274 273 272
300 300 298 297 298 296 296 293 292 292 292 290 288 287 288 290 290 290 287 286 288 288 287 285 284 284 284 283 281 281 280 279 278 278 277 276 273 272
300 301 300 299 298 297 297 296 294 294 293 290 289 287 285 287 288 289 288 288 289 290 288 287 287 286 284 283 283 282 280 279 278 277 275 273 272 272
298 300 301 300 300 300 300 298 297 296 294 292 289 288 288 288 290 289 289 288 288 289 288 287 286 285 285 284 283 283 281 280 278 276 275 274 273 272
297 298 300 300 300 301 299 298 298 296 295 294 292 290 288 289 289 289 289 288 288 288 289 288 286 285 285 285 285 284 284 281 278 277 276 274 273 272
297 298 298 298 300 300 299 298 297 296 296 296 293 292 291 289 290 291 291 289 289 289 288 288 287 287 286 285 286 286 284 282 281 280 278 277 275 274
299 299 298 298 299 299 299 299 298 296 295 294 294 293 293 292 293 293 292 293 292 290 290 289 289 288 287 288 287 286 285 284 282 280 280 279 278 277
301 300 300 300 300 299 298 299 299 298 297 297 297 296 295 294 295 295 295 295 295 294 292 290 289 289 288 287 285 285 286 286 284 281 280 280 280 279
302 302 301 300 299 299 300 300 299 299 299 298 298 296 296 296 296 296 296 295 295 293 292 290 289 289 287 286 287 287 286 286 284 282 280 278 278 278
303 304 303 303 302 301 301 301 301 300 299 298 298 297 296 295 295 295 295 295 294 293 292 290 289 288 288 288 288 288 287 286 285 284 283 281 280 279
304 304 303 304 304 302 302 301 301 299 299 299 299 299 298 296 295 295 295 294 293 292 292 291 291 290 290 290 290 289 288 287 287 286 285 284 283 283
304 305 305 305 305 304 302 301 301 301 301 301 300 299 298 298 298 296 295 294 293 292 291 291 291 291 290 289 289 289 289 288 287 287 287 286 285 283
304 305 305 305 304 304 304 303 303 303 302 302 301 300 300 299 297 296 294 292 292 291 291 291 291 291 290 290 289 289 289 289 288 287 286 286 285 285
304 304 304 304 304 304 304 304 303 304 304 303 303 302 301 300 299 296 294 293 292 292 292 292 291 291 291 290 289 289 289 289 288 287 286 286 286 286
304 304 304 305 305 305 305 304 304 304 303 303 303 304 304 304 302 300 298 296 295 294 294 293 293 292 292 292 291 291 290 289 288 288 287 287 286 285
304 305 306 306 306 306 305 305 305 305 305 305 305 305 305 305 304 302 301 300 299 298 297 297 297 296 294 292 292 292 291 291 290 289 288 288 288 287
306 307 307 307 306 306 306 306 305 305 305 306 306 305 304 304 304 303 302 301 300 300 300 300 299 299 299 297 295 294 293 293 292 291 290 289 289 288
307 307 308 309 308 308 308 308 307 307 307 307 307 305 304 304 304 304 303 302 302 302 301 301 301 301 300 299 298 296 295 294 293 293 292 291 290 290
308 308 309 310 310 310 309 309 308 308 308 307 307 307 306 306 306 305 305 304 303 303 303 303 302 302 301 300 300 299 297 296 295 294 293 293 293 292
309 310 310 310 310 310 310 309 309 308 307 307 307 307 308 307 306 306 305 304 304 304 304 304 304 303 302 302 301 301 300 298 298 297 297 296 296 296
Height
5889 5888 5887 5887 5886 5885 5885 5884 5883 5883 5882 5881 5880 5879 5878 5877 5877 5877 5876 5875 5874 5873 5873 5871 5871 5870 5870 5869 5868 5867 5866 5866 5865 5864 5864 5863 5863 5862
5885 5885 5884 5883 5882 5881 5880 5879 5879 5879 5877 5876 5875 5875 5874 5873 5872 5871 5871 5870 5869 5868 5866 5866 5865 5864 5863 5862 5862 5861 5860 5859 5859 5858 5857 5856 5856 5855
5882 5881 5880 5879 5878 5877 5876 5876 5875 5874 5873 5872 5871 5870 5869 5868 5867 5866 5865 5864 5863 5862 5860 5859 5858 5857 5856 5855 5855 5854 5853 5852 5851 5850 5849 5849 5848 5848
5879 5878 5876 5875 5874 5873 5872 5871 5870 5869 5869 5868 5866 5865 5864 5863 5862 5860 5859 5859 5857 5856 5854 5853 5852 5851 5850 5848 5847 5846 5845 5844 5843 5842 5841 5841 5840 5839
5874 5873 5872 5871 5870 5869 5868 5866 5865 5864 5863 5862 5861 5859 5858 5857 5856 5855 5853 5852 5851 5849 5848 5846 5845 5844 5842 5841 5839 5838 5837 5836 5835 5834 5833 5832 5831 5830
5870 5869 5868 5867 5865 5864 5863 5861 5860 5858 5857 5856 5855 5853 5852 5851 5849 5848 5847 5845 5844 5842 5841 5839 5838 5836 5834 5833 5831 5829 5828 5827 5825 5824 5823 5822 5821 5820
5866 5865 5864 5862 5861 5859 5857 5856 5854 5853 5851 5850 5848 5847 5846 5844 5843 5841 5839 5838 5836 5834 5833 5831 5829 5827 5825 5823 5821 5820 5818 5816 5815 5814 5813 5812 5811 5810
5861 5860 5859 5857 5855 5854 5852 5850 5849 5847 5845 5843 5842 5840 5839 5837 5835 5833 5832 5830 5828 5826 5824 5822 5820 5818 5816 5814 5812 5810 5807 5806 5804 5803 5802 5800 5799 5798
5856 5855 5853 5851 5850 5848 5846 5844 5842 5840 5839 5837 5835 5833 5831 5829 5827 5825 5823 5821 5818 5817 5815 5812 5810 5807 5805 5803 5801 5799 5797 5795 5793 5792 5790 5788 5787 5785
5851 5849 5847 5845 5844 5842 5840 5837 5835 5833 5831 5829 5827 5825 5822 5820 5818 5816 5814 5811 5809 5806 5804 5802 5799 5797 5794 5792 5790 5788 5786 5784 5782 5780 5778 5776 5774 5772
5846 5844 5841 5839 5838 5835 5833 5831 5829 5826 5824 5822 5819 5817 5814 5812 5809 5807 5804 5802 5799 5797 5794 5792 5789 5786 5783 5781 5779 5776 5774 5772 5770 5767 5765 5763 5760 5759
5840 5838 5836 5833 5831 5829 5826 5824 5821 5819 5816 5814 5811 5809 5806 5803 5800 5798 5795 5792 5790 5787 5784 5781 5778 5776 5773 5770 5767 5764 5762 5759 5756 5754 5752 5749 5747 5745
5834 5832 5829 5827 5824 5821 5819 5816 5814 5811 5808 5805 5803 5800 5797 5794 5791 5788 5785 5782 5779 5776 5773 5770 5767 5764 5761 5759 5755 5752 5749 5746 5743 5740 5738 5736 5734 5732
5828 5826 5823 5820 5817 5814 5812 5809 5806 5803 5800 5797 5794 5791 5787 5784 5781 5777 5774 5771 5768 5765 5762 5759 5755 5752 5749 5746 5743 5740 5736 5733 5730 5727 5725 5722 5719 5717
5821 5819 5815 5812 5810 5807 5804 5800 5797 5794 5791 5787 5784 5781 5777 5774 5770 5766 5763 5759 5756 5753 5750 5747 5743 5740 5737 5733 5730 5727 5724 5721 5718 5715 5712 5709 5706 5703
5815 5812 5809 5805 5802 5799 5795 5791 5788 5785 5781 5778 5774 5770 5766 5763 5759 5755 5752 5748 5745 5741 5738 5734 5731 5727 5724 5720 5717 5714 5710 5708 5705 5702 5699 5696 5692 5689
5807 5804 5801 5797 5794 5790 5786 5782 5779 5775 5771 5767 5764 5760 5755 5751 5747 5744 5740 5736 5733 5729 5726 5722 5718 5714 5710 5707 5703 5700 5697 5694 5691 5688 5685 5683 5679 5676
5799 5795 5792 5788 5785 5781 5777 5773 5769 5765 5761 5757 5753 5749 5744 5740 5736 5732 5728 5724 5720 5717 5713 5709 5705 5701 5697 5694 5690 5687 5683 5680 5677 5674 5671 5669 5666 5663
5791 5787 5783 5779 5775 5771 5767 5763 5759 5755 5751 5747 5742 5738 5733 5729 5725 5721 5716 5712 5708 5704 5700 5696 5692 5688 5685 5682 5678 5674 5670 5667 5664 5661 5658 5655 5652 5650
5782 5778 5774 5770 5766 5762 5758 5753 5749 5745 5740 5736 5732 5727 5723 5718 5714 5709 5705 5701 5697 5692 5688 5684 5680 5676 5672 5669 5666 5662 5658 5654 5651 5648 5645 5642 5639 5636
5773 5769 5765 5761 5757 5752 5748 5743 5739 5734 5730 5725 5721 5716 5712 5707 5703 5698 5694 5689 5685 5681 5677 5673 5669 5665 5661 5657 5654 5650 5646 5642 5639 5636 5633 5630 5627 5624
5765 5760 5756 5752 5747 5743 5738 5733 5729 5724 5720 5715 5711 5706 5701 5697 5692 5687 5683 5679 5675 5670 5666 5662 5658 5654 5650 5646 5642 5639 5635 5631 5628 5624 5621 5618 5615 5612
5756 5752 5747 5743 5738 5733 5729 5724 5719 5714 5710 5705 5700 5695 5691 5686 5682 5677 5673 5669 5664 5660 5656 5652 5648 5644 5639 5635 5631 5628 5624 5621 5617 5614 5611 5607 5605 5602